[[{"header":{"parameterUnit":"m.s-1","parameterCategory":2,"la1":30.2991,"la2":30.254,"lo1":-89.0895,"lo2":-89.0444,"dy":0.0017,"dx":0.0017,"nx":28,"ny":28,"refTime":"2023-09-08T21:00:00:Z","depth":"0","parameterNumber":2,"parameterNumberName":"U-component_of_CURRENTS"},"data":[0,0,0,0,0,0,0,0,0,0,0,0,0,0,0,0,0,0,0,0,0,0,0,0,0,0,0,0,0,0,0,0,0,0,0,0,0,0,0,0,0,0,0,0,0,0,0,0,0,0,0,0,0,0,0,0,0,0,-0.2996,-0.2997,0,-0.3048,-0.3048,-0.3048,-0.3058,-0.3059,-0.3059,-0.3059,-0.3054,-0.3054,-0.3054,0,0,0,0,0,0,0,0,0,0,0,0,0,-0.2894,-0.2895,-0.2996,-0.2997,-0.2999,-0.3048,-0.3048,-0.3048,-0.3058,-0.3059,-0.3059,-0.3059,-0.3055,-0.3054,-0.3054,0,0,0,0,0,0,0,0,0,0,0,0,0,-0.2934,-0.2896,-0.2996,-0.3015,-0.3018,-0.3048,-0.3048,-0.3048,-0.3058,-0.3059,-0.3059,-0.3059,-0.3055,-0.3054,-0.3054,-0.3042,0,0,-0.3052,-0.3052,0,0,0,0,0,0,0,0,-0.2932,-0.2937,-0.3011,-0.3014,-0.3017,-0.3053,-0.3011,-0.3046,-0.3058,-0.3035,-0.3059,-0.306,-0.3053,-0.3053,-0.3052,-0.3042,-0.3042,-0.3052,-0.3051,-0.3051,-0.3051,0,0,0,0,0,0,0,-0.2929,-0.2935,-0.3009,-0.3013,-0.3016,-0.3018,-0.3023,-0.3017,-0.3035,-0.3037,-0.304,-0.3057,-0.3054,-0.3053,-0.3052,-0.3041,-0.3052,-0.3051,-0.3051,-0.3051,-0.3014,-0.3014,0,0,0,0,0,0,-0.2938,-0.2932,-0.3008,-0.3011,-0.2983,-0.302,-0.3025,-0.3035,-0.3036,-0.3039,-0.3057,-0.3058,-0.3053,-0.3053,-0.3052,-0.3039,-0.3051,-0.3051,-0.305,-0.3015,-0.3014,-0.3014,0,0,0,0,0,0,-0.2935,-0.2944,-0.3006,-0.2979,-0.2988,-0.3022,-0.3032,-0.3036,-0.3039,-0.3053,-0.3053,-0.3057,-0.3054,-0.3053,-0.3043,-0.3039,-0.305,-0.305,-0.3016,-0.3015,-0.3014,-0.3013,0,0,0,0,0,0,-0.2932,-0.2942,-0.293,-0.298,-0.299,-0.3023,-0.3033,-0.3037,-0.3053,-0.3054,-0.3053,-0.3053,-0.3054,-0.3044,-0.3042,-0.3038,-0.3049,-0.3017,-0.3015,-0.3014,-0.3014,-0.3012,-0.3011,0,0,0,0,0,-0.2928,-0.2917,-0.2928,-0.2937,-0.2979,-0.3024,-0.3028,-0.3048,-0.3053,-0.3051,-0.3048,-0.3054,-0.3035,-0.3043,-0.3041,-0.3037,-0.3017,-0.3016,-0.3014,-0.3014,-0.3012,-0.3011,0,0,0,0,0,0,-0.2861,-0.292,-0.2933,-0.2938,-0.2979,-0.3028,-0.3026,-0.3047,-0.3044,-0.3042,-0.3046,-0.3045,-0.3034,-0.3032,-0.3041,-0.3022,-0.3027,-0.3025,-0.3027,-0.3025,-0.3024,-0.3021,-0.3049,0,0,0,0,0,-0.2844,-0.285,-0.2914,-0.2914,-0.2938,-0.298,-0.2994,-0.3019,-0.3039,-0.3038,-0.3039,-0.3033,-0.3026,-0.3024,-0.3015,-0.3006,-0.2967,-0.3002,-0.3,-0.2999,-0.2994,-0.2911,-0.29,-0.3009,-0.3009,-0.3009,0,0,-0.2822,-0.285,-0.2855,-0.29,-0.293,-0.2957,-0.2987,-0.3019,-0.3029,-0.3036,-0.3028,-0.3026,-0.302,-0.301,-0.3005,-0.301,-0.2949,-0.2997,-0.2996,-0.2992,-0.2908,-0.2897,-0.2887,-0.3008,-0.3008,-0.3008,0,0,-0.278,-0.2807,-0.2799,-0.284,-0.2893,-0.2931,-0.2943,-0.2996,-0.3004,-0.3008,-0.3011,-0.3006,-0.2997,-0.2994,-0.2991,-0.2973,-0.294,-0.2973,-0.2967,-0.2886,-0.2876,-0.2867,-0.2808,-0.2794,-0.2976,-0.2976,-0.2976,0,-0.2748,-0.2745,-0.2803,-0.2817,-0.2838,-0.292,-0.2925,-0.2958,-0.2994,-0.2983,-0.3002,-0.2971,-0.2987,-0.2958,-0.2972,-0.297,-0.292,-0.2978,-0.2883,-0.2873,-0.2863,-0.2805,-0.2789,-0.2976,-0.2976,-0.2976,-0.2976,0,-0.2704,-0.2711,-0.2717,-0.2757,-0.2792,-0.2813,-0.2888,-0.2905,-0.2929,-0.2948,-0.2924,-0.294,-0.2912,-0.2932,-0.296,-0.2908,-0.2894,-0.2887,-0.2887,-0.2852,-0.2794,-0.2777,-0.2975,-0.2975,-0.2975,-0.2976,0,0,-0.2595,-0.2668,-0.2664,-0.2669,-0.2759,-0.278,-0.2815,-0.2842,-0.283,-0.2868,-0.2823,-0.2859,-0.2861,-0.2859,-0.2881,-0.2854,-0.2778,-0.2856,-0.2852,-0.2797,-0.2599,-0.2555,-0.2533,-0.2743,-0.274,-0.2737,-0.2586,0,-0.2529,-0.253,-0.2586,-0.2588,-0.2599,-0.2688,-0.2704,-0.2747,-0.2775,-0.2759,-0.2786,-0.276,-0.2834,-0.2816,-0.28,-0.2786,-0.2732,-0.282,-0.2641,-0.2637,-0.26,-0.2511,-0.244,-0.2295,-0.257,-0.2567,-0.2565,0,-0.2446,-0.2457,-0.2451,-0.2491,-0.2501,-0.252,-0.2542,-0.2569,-0.2602,-0.2614,-0.2612,-0.2633,-0.2632,-0.2678,-0.2614,-0.2662,-0.2624,-0.2615,-0.2608,-0.2554,-0.256,-0.2373,-0.2254,-0.2249,-0.2539,-0.2541,-0.2543,0,-0.2317,-0.235,-0.2333,-0.2356,-0.2429,-0.2422,-0.2453,-0.2504,-0.2513,-0.2514,-0.2506,-0.2495,-0.2484,-0.2443,-0.2483,-0.2517,-0.2394,-0.2418,-0.233,-0.2328,-0.2226,-0.2219,-0.2078,-0.2309,-0.2309,-0.2309,-0.231,0,-0.2217,-0.2196,-0.227,-0.2262,-0.223,-0.2315,-0.2286,-0.2322,-0.2357,-0.2347,-0.2412,-0.2391,-0.2422,-0.2391,-0.2403,-0.2322,-0.2307,-0.2299,-0.2267,-0.2226,-0.2221,-0.2182,-0.2217,-0.2304,-0.2305,-0.2306,-0.2307,0,-0.2087,-0.214,-0.2119,-0.2165,-0.2177,-0.2152,-0.2209,-0.2195,-0.2246,-0.2231,-0.2228,-0.2283,-0.2246,-0.2272,-0.2208,-0.2204,-0.2097,-0.2104,-0.2077,-0.2044,-0.1959,-0.1997,-0.1813,-0.1759,-0.1952,-0.195,-0.1948,0,-0.202,-0.2,-0.2033,-0.2027,-0.2045,-0.2043,-0.2051,-0.2121,-0.2126,-0.2167,-0.2143,-0.213,-0.2116,-0.2034,-0.2006,-0.1943,-0.1979,-0.1833,-0.1884,-0.1911,-0.193,-0.1965,-0.1937,-0.1751,-0.1748,-0.1745,-0.1743,0,-0.1883,-0.1904,-0.1899,-0.1891,-0.1891,-0.1896,-0.1913,-0.191,-0.1987,-0.1994,-0.1995,-0.1987,-0.1933,-0.1858,-0.1795,-0.1758,-0.1793,-0.1773,-0.1779,-0.1732,-0.1776,-0.1724,-0.1928,-0.1718,-0.1721,-0.1722,-0.1724,-0.1725,-0.1777,-0.1748,-0.1758,-0.1741,-0.1749,-0.1743,-0.1705,-0.175,-0.175,-0.1749,-0.1817,-0.1792,-0.1767,-0.1675,-0.1625,-0.1531,-0.1588,-0.151,-0.1545,-0.1572,-0.1538,-0.1706,-0.1482,-0.1483,-0.1484,-0.1485,-0.1486,0,-0.1635,-0.1631,-0.1611,-0.1592,-0.1558,-0.1609,-0.1607,-0.1567,-0.1535,-0.1583,-0.1582,-0.1599,-0.1514,-0.1499,-0.142,-0.1347,-0.1321,-0.1321,-0.1356,-0.1329,-0.1434,-0.1447,-0.123,-0.123,-0.123,-0.123,-0.123,-0.123,-0.1563,-0.1506,-0.1508,-0.1415,-0.1403,-0.1322,-0.13,-0.1272,-0.1286,-0.1277,-0.1318,-0.1397,-0.1411,-0.1482,-0.1375,-0.129,-0.1264,-0.1211,-0.1233,-0.1343,-0.1365,-0.1386,-0.1404,-0.1182,-0.1182,-0.1082,-0.1081,-0.1081]},{"header":{"parameterUnit":"m.s-1","parameterCategory":2,"la1":30.2991,"la2":30.254,"lo1":-89.0895,"lo2":-89.0444,"dy":0.0017,"dx":0.0017,"nx":28,"ny":28,"refTime":"2023-09-08T21:00:00:Z","depth":"0","parameterNumber":3,"parameterNumberName":"V-component_of_CURRENTS"},"data":[0,0,0,0,0,0,0,0,0,0,0,0,0,0,0,0,0,0,0,0,0,0,0,0,0,0,0,0,0,0,0,0,0,0,0,0,0,0,0,0,0,0,0,0,0,0,0,0,0,0,0,0,0,0,0,0,0,0,-0.0556,-0.0555,0,-0.0439,-0.0438,-0.0436,-0.0361,-0.0361,-0.0361,-0.036,-0.0205,-0.0201,-0.0197,0,0,0,0,0,0,0,0,0,0,0,0,0,-0.0669,-0.0668,-0.0556,-0.0555,-0.0554,-0.0439,-0.0438,-0.0436,-0.0362,-0.0361,-0.0361,-0.036,-0.0206,-0.0201,-0.0197,0,0,0,0,0,0,0,0,0,0,0,0,0,-0.0592,-0.0667,-0.0556,-0.0504,-0.0498,-0.044,-0.0438,-0.0436,-0.0362,-0.0361,-0.0361,-0.036,-0.0207,-0.0202,-0.0196,-0.017,0,0,-0.0178,-0.0176,0,0,0,0,0,0,0,0,-0.0597,-0.0588,-0.0513,-0.0507,-0.0501,-0.0416,-0.042,-0.0345,-0.0362,-0.0412,-0.036,-0.036,-0.0273,-0.0262,-0.0239,-0.0163,-0.0156,-0.0178,-0.0174,-0.0172,-0.017,0,0,0,0,0,0,0,-0.0602,-0.0592,-0.0509,-0.0511,-0.0504,-0.047,-0.0459,-0.0406,-0.0345,-0.0408,-0.0402,-0.0391,-0.0269,-0.0245,-0.0235,-0.0154,-0.0178,-0.0173,-0.0169,-0.0167,-0.0047,-0.0047,0,0,0,0,0,0,-0.0622,-0.0597,-0.0512,-0.0505,-0.055,-0.0469,-0.0456,-0.0442,-0.0346,-0.0332,-0.0392,-0.0388,-0.0255,-0.0242,-0.0229,-0.021,-0.0172,-0.0167,-0.0163,-0.0047,-0.0047,-0.0047,0,0,0,0,0,0,-0.0625,-0.0615,-0.0517,-0.055,-0.0535,-0.0468,-0.0453,-0.044,-0.0417,-0.0335,-0.0319,-0.0382,-0.0254,-0.0237,-0.0188,-0.0203,-0.0164,-0.0159,-0.0046,-0.0047,-0.0047,-0.0161,0,0,0,0,0,0,-0.0628,-0.0617,-0.0617,-0.0551,-0.0534,-0.0492,-0.0453,-0.0438,-0.0412,-0.0406,-0.0321,-0.0306,-0.0253,-0.0197,-0.0182,-0.0194,-0.0154,-0.0046,-0.0046,-0.0047,-0.0157,-0.0165,-0.0172,0,0,0,0,0,-0.0633,-0.0634,-0.0618,-0.0607,-0.0535,-0.0493,-0.0481,-0.043,-0.0412,-0.0407,-0.035,-0.0309,-0.0189,-0.0192,-0.0175,-0.0186,-0.0046,-0.0046,-0.0047,-0.0153,-0.0164,-0.0172,0,0,0,0,0,0,-0.0681,-0.0624,-0.0605,-0.0589,-0.055,-0.0481,-0.0471,-0.0439,-0.0389,-0.0384,-0.0308,-0.0289,-0.0254,-0.0201,-0.0206,-0.0151,-0.0112,-0.0109,-0.0199,-0.0208,-0.0215,-0.0226,-0.015,0,0,0,0,0,-0.0695,-0.0682,-0.0624,-0.0613,-0.0597,-0.0538,-0.0516,-0.0483,-0.043,-0.0408,-0.0349,-0.0289,-0.0242,-0.0211,-0.0159,-0.0126,-0.0071,-0.0121,-0.0129,-0.0136,-0.0133,-0.0071,-0.0073,-0.0049,-0.0049,-0.0049,0,0,-0.0712,-0.0679,-0.0672,-0.0624,-0.0589,-0.0571,-0.0523,-0.0496,-0.0483,-0.0398,-0.0365,-0.0314,-0.0239,-0.0207,-0.0186,-0.0165,-0.0115,-0.0137,-0.0144,-0.0136,-0.0072,-0.0074,-0.0076,-0.0049,-0.0049,-0.0049,0,0,-0.0736,-0.0712,-0.0706,-0.068,-0.0636,-0.0602,-0.06,-0.0537,-0.0513,-0.0475,-0.0418,-0.0379,-0.0296,-0.0254,-0.022,-0.0237,-0.0161,-0.0219,-0.0263,-0.0205,-0.0206,-0.0207,-0.015,-0.0144,-0.022,-0.0221,-0.0221,0,-0.0756,-0.074,-0.07,-0.0688,-0.0672,-0.0622,-0.0615,-0.0587,-0.0519,-0.0497,-0.0479,-0.0368,-0.0321,-0.0275,-0.0288,-0.0256,-0.0204,-0.024,-0.0216,-0.0216,-0.0214,-0.0155,-0.0148,-0.0226,-0.0225,-0.0225,-0.0224,0,-0.0769,-0.0761,-0.0759,-0.0729,-0.0711,-0.0699,-0.0658,-0.064,-0.0608,-0.0568,-0.0519,-0.0452,-0.0381,-0.0372,-0.0337,-0.0307,-0.0268,-0.0239,-0.0199,-0.0224,-0.016,-0.015,-0.0234,-0.0232,-0.023,-0.0229,0,0,-0.079,-0.077,-0.0768,-0.0767,-0.0731,-0.0716,-0.0708,-0.0673,-0.0656,-0.0608,-0.0571,-0.052,-0.0476,-0.0436,-0.0386,-0.0348,-0.0315,-0.0299,-0.0293,-0.0254,-0.0178,-0.0146,-0.0131,-0.0279,-0.0278,-0.0277,-0.0141,0,-0.0806,-0.0809,-0.0787,-0.0793,-0.0792,-0.0756,-0.0749,-0.0717,-0.0678,-0.0634,-0.0576,-0.0525,-0.0502,-0.0469,-0.043,-0.0334,-0.0292,-0.0354,-0.0148,-0.0142,-0.012,-0.012,-0.0091,0.0034,-0.0131,-0.0129,-0.0128,0,-0.0817,-0.0818,-0.0832,-0.0824,-0.0817,-0.0815,-0.0788,-0.0773,-0.0714,-0.0678,-0.0623,-0.0562,-0.0501,-0.0477,-0.0336,-0.0373,-0.0289,-0.0221,-0.0213,-0.0133,-0.0091,0.0037,0.0059,0.0183,-0.0112,-0.0113,-0.0114,0,-0.0852,-0.0846,-0.0863,-0.0861,-0.0845,-0.0843,-0.0831,-0.0787,-0.077,-0.0702,-0.0669,-0.058,-0.052,-0.0416,-0.0292,-0.0303,-0.0126,-0.0116,-0.0006,-0.0002,0.0089,0.0098,0.0248,-0.0016,-0.0016,-0.0016,-0.0017,0,-0.0878,-0.0887,-0.0884,-0.0894,-0.0906,-0.088,-0.0877,-0.0848,-0.08,-0.0769,-0.0694,-0.0639,-0.0501,-0.0385,-0.0282,-0.0111,-0.0111,-0.0007,0.0037,0.0049,0.0053,0.022,0.0262,-0.0011,-0.0012,-0.0013,-0.0014,0,-0.0913,-0.0913,-0.0931,-0.0927,-0.0927,-0.0936,-0.0919,-0.0912,-0.086,-0.0814,-0.0793,-0.0667,-0.0512,-0.0369,-0.0178,-0.0087,0.0148,0.0123,0.0123,0.0163,0.0366,0.0399,0.0608,0.0677,0.0271,0.0272,0.0274,0,-0.0929,-0.0946,-0.0963,-0.0978,-0.0979,-0.0987,-0.0991,-0.0952,-0.0933,-0.0827,-0.0799,-0.0645,-0.0525,-0.0238,-0.0045,0.0164,0.0244,0.0308,0.0282,0.039,0.0461,0.0484,0.0528,0.0362,0.0364,0.0365,0.0366,0,-0.0956,-0.0967,-0.0985,-0.1021,-0.1038,-0.1052,-0.1046,-0.1036,-0.0971,-0.0915,-0.0799,-0.0695,-0.0411,-0.0152,0.0114,0.0231,0.0401,0.0347,0.0474,0.0555,0.0581,0.0663,0.0254,0.0381,0.038,0.0379,0.0378,0.0377,-0.0969,-0.0993,-0.1022,-0.1054,-0.108,-0.1095,-0.1091,-0.1064,-0.1021,-0.0905,-0.0801,-0.0617,-0.025,0.0133,0.0285,0.0591,0.0545,0.067,0.0707,0.0725,0.0777,0.039,0.055,0.055,0.055,0.0549,0.0549,0,-0.0973,-0.1007,-0.1047,-0.1083,-0.1114,-0.112,-0.1108,-0.108,-0.1014,-0.0895,-0.0763,-0.0368,0.0005,0.0339,0.077,0.094,0.0973,0.1013,0.1061,0.1091,0.0777,0.0765,0.0962,0.0962,0.0962,0.0962,0.0961,0.0961,-0.0976,-0.1016,-0.1044,-0.1097,-0.1121,-0.1128,-0.1113,-0.1059,-0.0966,-0.075,-0.0536,-0.0366,0.0111,0.083,0.1239,0.1269,0.1407,0.1395,0.1464,0.1249,0.122,0.1192,0.1192,0.1475,0.1476,0.177,0.1773,0.1775]}],[{"header":{"parameterUnit":"m.s-1","parameterCategory":2,"la1":30.2991,"la2":30.254,"lo1":-89.0895,"lo2":-89.0444,"dy":0.0017,"dx":0.0017,"nx":28,"ny":28,"refTime":"2023-09-08T21:00:00:Z","depth":"2","parameterNumber":2,"parameterNumberName":"U-component_of_CURRENTS"},"data":[0,0,0,0,0,0,0,0,0,0,0,0,0,0,0,0,0,0,0,0,0,0,0,0,0,0,0,0,0,0,0,0,0,0,0,0,0,0,0,0,0,0,0,0,0,0,0,0,0,0,0,0,0,0,0,0,0,0,-0.2289,-0.2289,0,-0.2266,-0.2266,-0.2265,-0.2264,-0.2265,-0.2265,-0.2265,-0.2322,-0.2323,-0.2324,0,0,0,0,0,0,0,0,0,0,0,0,0,-0.2233,-0.2235,-0.2289,-0.2289,-0.2289,-0.2266,-0.2266,-0.2265,-0.2264,-0.2265,-0.2265,-0.2266,-0.2321,-0.2323,-0.2324,0,0,0,0,0,0,0,0,0,0,0,0,0,-0.2237,-0.2235,-0.2289,-0.2287,-0.2287,-0.2266,-0.2265,-0.2265,-0.2264,-0.2265,-0.2265,-0.2266,-0.2321,-0.2323,-0.2324,-0.2319,0,0,-0.2329,-0.233,0,0,0,0,0,0,0,0,-0.2236,-0.2238,-0.2288,-0.2287,-0.2287,-0.2271,-0.2266,-0.2288,-0.2264,-0.227,-0.2265,-0.2266,-0.2313,-0.2315,-0.2305,-0.2322,-0.2324,-0.2329,-0.233,-0.2331,-0.2331,0,0,0,0,0,0,0,-0.2236,-0.2239,-0.2278,-0.2288,-0.2287,-0.2254,-0.2256,-0.2269,-0.2288,-0.227,-0.227,-0.2271,-0.2313,-0.2303,-0.2307,-0.2325,-0.2329,-0.233,-0.2331,-0.2332,-0.2348,-0.2347,0,0,0,0,0,0,-0.2249,-0.2239,-0.2278,-0.2277,-0.2266,-0.2255,-0.2257,-0.2273,-0.2286,-0.2288,-0.227,-0.2271,-0.23,-0.2305,-0.2309,-0.2333,-0.2331,-0.2332,-0.2333,-0.2348,-0.2348,-0.2347,0,0,0,0,0,0,-0.2248,-0.2253,-0.2279,-0.2258,-0.226,-0.2256,-0.2274,-0.2273,-0.2277,-0.2286,-0.229,-0.2278,-0.2301,-0.2306,-0.2332,-0.2334,-0.2333,-0.2334,-0.2349,-0.2348,-0.2347,-0.2364,0,0,0,0,0,0,-0.2246,-0.2253,-0.2258,-0.226,-0.2261,-0.226,-0.2273,-0.2272,-0.2277,-0.2278,-0.2294,-0.2298,-0.2302,-0.233,-0.2334,-0.2337,-0.2335,-0.235,-0.2349,-0.2348,-0.2364,-0.2364,-0.2363,0,0,0,0,0,-0.2245,-0.2245,-0.2259,-0.2263,-0.2273,-0.2259,-0.2256,-0.2253,-0.2277,-0.2264,-0.2292,-0.2299,-0.2326,-0.2332,-0.2336,-0.2339,-0.235,-0.2349,-0.2348,-0.2364,-0.2364,-0.2363,0,0,0,0,0,0,-0.222,-0.2245,-0.2261,-0.2269,-0.2265,-0.226,-0.2253,-0.2262,-0.2271,-0.2288,-0.2304,-0.231,-0.2327,-0.2329,-0.2335,-0.2337,-0.2334,-0.2334,-0.2345,-0.2345,-0.2344,-0.2363,-0.2337,0,0,0,0,0,-0.222,-0.2228,-0.2244,-0.2246,-0.2256,-0.2262,-0.2257,-0.2261,-0.2273,-0.2277,-0.2297,-0.2313,-0.2321,-0.2333,-0.2336,-0.2349,-0.2327,-0.2348,-0.2347,-0.2347,-0.2363,-0.232,-0.2317,-0.2343,-0.2343,-0.2343,0,0,-0.2211,-0.2224,-0.2229,-0.224,-0.2248,-0.2262,-0.2261,-0.2261,-0.2272,-0.2285,-0.2314,-0.2317,-0.2323,-0.233,-0.2338,-0.2339,-0.2324,-0.2346,-0.2346,-0.2362,-0.2318,-0.2316,-0.2314,-0.2342,-0.2343,-0.2343,0,0,-0.2196,-0.2217,-0.2225,-0.223,-0.2243,-0.2252,-0.2261,-0.2274,-0.2278,-0.23,-0.231,-0.2319,-0.234,-0.2336,-0.234,-0.234,-0.2322,-0.2337,-0.2359,-0.2316,-0.2314,-0.2312,-0.2264,-0.2257,-0.234,-0.234,-0.234,0,-0.2188,-0.2203,-0.2217,-0.2232,-0.2238,-0.226,-0.2272,-0.2281,-0.2297,-0.2302,-0.2313,-0.2333,-0.234,-0.2345,-0.2349,-0.2342,-0.2314,-0.2364,-0.2317,-0.2315,-0.2312,-0.2263,-0.2256,-0.234,-0.234,-0.234,-0.234,0,-0.2184,-0.2199,-0.2204,-0.2242,-0.225,-0.2253,-0.2284,-0.2296,-0.232,-0.2328,-0.2338,-0.2342,-0.2347,-0.2348,-0.2361,-0.2346,-0.2329,-0.2319,-0.2321,-0.2311,-0.2259,-0.2251,-0.2341,-0.2341,-0.2341,-0.2341,0,0,-0.2148,-0.2196,-0.2195,-0.2203,-0.2253,-0.2247,-0.2291,-0.2308,-0.2315,-0.2343,-0.2339,-0.2367,-0.2365,-0.2368,-0.2366,-0.2353,-0.231,-0.2342,-0.234,-0.2301,-0.221,-0.2154,-0.214,-0.2292,-0.2291,-0.229,-0.2175,0,-0.2138,-0.2152,-0.2189,-0.22,-0.2209,-0.2253,-0.2277,-0.23,-0.232,-0.2321,-0.2337,-0.2331,-0.2371,-0.2358,-0.2358,-0.232,-0.2293,-0.2342,-0.2221,-0.2218,-0.2175,-0.2131,-0.2004,-0.1888,-0.2167,-0.2166,-0.2165,0,-0.2111,-0.2122,-0.2136,-0.216,-0.2171,-0.2189,-0.2212,-0.2233,-0.2265,-0.2276,-0.23,-0.2306,-0.2309,-0.2322,-0.2281,-0.2311,-0.2269,-0.2244,-0.2237,-0.2181,-0.2148,-0.1946,-0.1863,-0.2151,-0.2152,-0.2153,-0.2154,0,-0.203,-0.207,-0.2072,-0.2083,-0.2134,-0.2144,-0.2169,-0.2212,-0.2219,-0.2235,-0.2235,-0.2251,-0.223,-0.2213,-0.2201,-0.2224,-0.2135,-0.214,-0.2049,-0.2043,-0.1912,-0.1896,-0.2086,-0.2086,-0.2087,-0.2087,-0.2087,0,-0.1976,-0.1967,-0.2029,-0.202,-0.2013,-0.2074,-0.2069,-0.2101,-0.2137,-0.2131,-0.2192,-0.2177,-0.2203,-0.2174,-0.2166,-0.2086,-0.2095,-0.2045,-0.2007,-0.1911,-0.1898,-0.2118,-0.2123,-0.2083,-0.2083,-0.2084,-0.2085,0,-0.1871,-0.1919,-0.1909,-0.1957,-0.197,-0.1956,-0.2008,-0.2003,-0.2055,-0.2046,-0.2048,-0.2096,-0.2061,-0.2077,-0.2021,-0.2008,-0.1949,-0.1912,-0.1803,-0.1757,-0.1893,-0.19,-0.1783,-0.178,-0.1778,-0.1776,-0.1774,0,-0.1814,-0.1802,-0.1838,-0.1836,-0.1855,-0.1863,-0.1872,-0.1941,-0.1946,-0.1989,-0.1969,-0.196,-0.1939,-0.1862,-0.1827,-0.1766,-0.1849,-0.161,-0.1638,-0.1885,-0.186,-0.1872,-0.1882,-0.1455,-0.1451,-0.1447,-0.1444,0,-0.1697,-0.1717,-0.1717,-0.1716,-0.1721,-0.1729,-0.1749,-0.1747,-0.1821,-0.1828,-0.1827,-0.1815,-0.1761,-0.1653,-0.1592,-0.1548,-0.162,-0.1537,-0.1784,-0.1569,-0.157,-0.1549,-0.157,-0.1413,-0.1416,-0.1419,-0.142,-0.1422,-0.1604,-0.1579,-0.1592,-0.1582,-0.1593,-0.1589,-0.1554,-0.1594,-0.1593,-0.1586,-0.1649,-0.1597,-0.1581,-0.143,-0.1346,-0.1288,-0.1405,-0.1355,-0.1367,-0.1382,-0.1383,-0.1381,-0.1188,-0.119,-0.1191,-0.1193,-0.1194,0,-0.1479,-0.1476,-0.1461,-0.1447,-0.1416,-0.1466,-0.1464,-0.1422,-0.1385,-0.1411,-0.1402,-0.1274,-0.1197,-0.1189,-0.1054,-0.102,-0.1021,-0.0975,-0.0989,-0.102,-0.1047,-0.1033,-0.0744,-0.0743,-0.0741,-0.074,0,0,-0.1415,-0.1365,-0.1365,-0.1281,-0.1273,-0.1198,-0.1176,-0.1141,-0.1136,-0.1083,-0.1067,-0.1153,-0.1175,-0.0976,-0.0913,-0.081,-0.0907,-0.0764,-0.1127,-0.1176,-0.1202,-0.1268,-0.1281,0,0,0,0,0]},{"header":{"parameterUnit":"m.s-1","parameterCategory":2,"la1":30.2991,"la2":30.254,"lo1":-89.0895,"lo2":-89.0444,"dy":0.0017,"dx":0.0017,"nx":28,"ny":28,"refTime":"2023-09-08T21:00:00:Z","depth":"2","parameterNumber":3,"parameterNumberName":"V-component_of_CURRENTS"},"data":[0,0,0,0,0,0,0,0,0,0,0,0,0,0,0,0,0,0,0,0,0,0,0,0,0,0,0,0,0,0,0,0,0,0,0,0,0,0,0,0,0,0,0,0,0,0,0,0,0,0,0,0,0,0,0,0,0,0,-0.0321,-0.032,0,-0.0224,-0.0223,-0.0222,-0.0169,-0.0169,-0.0169,-0.0169,-0.0035,-0.0032,-0.0029,0,0,0,0,0,0,0,0,0,0,0,0,0,-0.0405,-0.0404,-0.0321,-0.032,-0.0319,-0.0224,-0.0223,-0.0222,-0.0169,-0.0169,-0.0169,-0.0168,-0.0037,-0.0033,-0.0029,0,0,0,0,0,0,0,0,0,0,0,0,0,-0.0346,-0.0404,-0.0322,-0.028,-0.0275,-0.0225,-0.0223,-0.0222,-0.0169,-0.0169,-0.0169,-0.0168,-0.0038,-0.0033,-0.0028,-0.0005,0,0,-0.0013,-0.0011,0,0,0,0,0,0,0,0,-0.0349,-0.0343,-0.0288,-0.0283,-0.0277,-0.0207,-0.0204,-0.0147,-0.017,-0.0211,-0.0169,-0.0168,-0.0089,-0.008,-0.0065,0.0001,0.0007,-0.0013,-0.001,-0.0007,-0.0006,0,0,0,0,0,0,0,-0.0354,-0.0347,-0.0284,-0.0286,-0.028,-0.0247,-0.0239,-0.0193,-0.0154,-0.0207,-0.0203,-0.019,-0.0086,-0.007,-0.0061,0.0009,-0.0013,-0.0008,-0.0005,-0.0003,0.0104,0.0103,0,0,0,0,0,0,-0.0366,-0.0351,-0.0287,-0.0281,-0.0312,-0.0246,-0.0237,-0.0231,-0.0155,-0.0143,-0.0191,-0.0188,-0.0079,-0.0067,-0.0056,-0.0026,-0.0007,-0.0003,0.0,0.0104,0.0104,0.0103,0,0,0,0,0,0,-0.0368,-0.0362,-0.0291,-0.0312,-0.0301,-0.0245,-0.0239,-0.023,-0.0213,-0.0142,-0.013,-0.0184,-0.0078,-0.0063,-0.0016,-0.0021,-0.0001,0.0004,0.0104,0.0104,0.0104,0.0035,0,0,0,0,0,0,-0.0371,-0.0363,-0.0369,-0.0313,-0.03,-0.0263,-0.0239,-0.0228,-0.0205,-0.0201,-0.0132,-0.0119,-0.0076,-0.0024,-0.0012,-0.0014,0.0008,0.0104,0.0104,0.0104,0.0037,0.0032,0.0028,0,0,0,0,0,-0.0375,-0.0379,-0.037,-0.0362,-0.0308,-0.0263,-0.0253,-0.0213,-0.0205,-0.0198,-0.0154,-0.0122,-0.0017,-0.002,-0.0005,-0.0006,0.0104,0.0104,0.0104,0.0039,0.0033,0.0028,0,0,0,0,0,0,-0.0416,-0.0373,-0.0361,-0.0353,-0.0313,-0.0254,-0.0245,-0.0219,-0.018,-0.0178,-0.0118,-0.0102,-0.0065,-0.0025,-0.0031,0.0024,0.0047,0.005,-0.0007,-0.0012,-0.0017,-0.0034,0.0012,0,0,0,0,0,-0.0429,-0.0425,-0.0373,-0.0368,-0.0353,-0.0303,-0.0283,-0.0254,-0.0209,-0.0192,-0.0144,-0.0096,-0.0055,-0.0026,0.0017,0.0051,0.0088,0.0059,0.0054,0.005,0.0046,0.0096,0.0096,0.0102,0.0102,0.0102,0,0,-0.0444,-0.042,-0.0418,-0.0377,-0.0348,-0.0329,-0.029,-0.0262,-0.0246,-0.0183,-0.0153,-0.011,-0.005,-0.0015,0.0005,0.0019,0.0067,0.005,0.0046,0.0044,0.0096,0.0095,0.0095,0.0102,0.0102,0.0102,0,0,-0.0468,-0.0452,-0.0455,-0.0426,-0.0383,-0.0351,-0.0347,-0.0291,-0.0268,-0.0232,-0.0188,-0.0147,-0.0082,-0.0038,-0.0008,-0.0011,0.0038,-0.0001,-0.0032,0.0016,0.0016,0.0016,0.0058,0.0062,0.0,0.0,-0.0,0,-0.0488,-0.0484,-0.0447,-0.0438,-0.0421,-0.0367,-0.0362,-0.0329,-0.0265,-0.0248,-0.0233,-0.0143,-0.0093,-0.0046,-0.005,-0.0021,0.001,-0.0018,0.001,0.0011,0.0012,0.0055,0.006,-0.0003,-0.0003,-0.0003,-0.0002,0,-0.0509,-0.0505,-0.0503,-0.048,-0.0457,-0.0442,-0.0392,-0.0369,-0.0341,-0.0303,-0.0257,-0.0189,-0.0136,-0.0116,-0.0083,-0.0049,-0.003,-0.0007,0.002,0.0007,0.0053,0.006,-0.0008,-0.0007,-0.0006,-0.0005,0,0,-0.055,-0.0525,-0.0525,-0.0522,-0.0479,-0.046,-0.0441,-0.0402,-0.0387,-0.0334,-0.0308,-0.0242,-0.0208,-0.0172,-0.0122,-0.008,-0.0043,-0.0047,-0.0043,-0.0014,0.0057,0.0082,0.0092,-0.0018,-0.0017,-0.0017,0.0082,0,-0.0578,-0.0582,-0.0558,-0.0559,-0.0555,-0.0508,-0.0493,-0.0452,-0.0411,-0.0371,-0.0304,-0.026,-0.0227,-0.0201,-0.0157,-0.0067,-0.0027,-0.0073,0.0071,0.0075,0.0094,0.0101,0.0089,0.0177,0.009,0.0091,0.0092,0,-0.0604,-0.0604,-0.0617,-0.0598,-0.0592,-0.0586,-0.0554,-0.053,-0.0464,-0.0431,-0.038,-0.0321,-0.025,-0.0221,-0.009,-0.0123,-0.0046,0.002,0.0026,0.0079,0.0114,0.0178,0.0194,0.0105,0.0104,0.0103,0.0102,0,-0.065,-0.0641,-0.0658,-0.0651,-0.0622,-0.0622,-0.0606,-0.0554,-0.0532,-0.0467,-0.044,-0.0353,-0.0295,-0.0199,-0.007,-0.0077,0.0077,0.0092,0.0186,0.0188,0.0222,0.0226,0.0179,0.0179,0.0179,0.0179,0.0178,0,-0.0684,-0.0693,-0.0684,-0.069,-0.0704,-0.0669,-0.0669,-0.0636,-0.0587,-0.0557,-0.0477,-0.0426,-0.0287,-0.018,-0.0077,0.0078,0.0076,0.0182,0.0218,0.0197,0.0198,0.0171,0.0168,0.0182,0.0182,0.0181,0.018,0,-0.0724,-0.072,-0.0735,-0.0727,-0.0727,-0.0737,-0.0717,-0.0709,-0.0658,-0.0615,-0.0595,-0.047,-0.0328,-0.0187,-0.0008,0.0081,0.0219,0.0273,0.0234,0.0263,0.0298,0.0291,0.0388,0.039,0.0391,0.0392,0.0393,0,-0.074,-0.0756,-0.077,-0.0785,-0.0785,-0.0793,-0.0795,-0.0754,-0.0733,-0.0635,-0.061,-0.0469,-0.0356,-0.0093,0.0089,0.0278,0.027,0.0374,0.0361,0.0295,0.032,0.0311,0.0302,0.038,0.0381,0.0381,0.0382,0,-0.0769,-0.0781,-0.0795,-0.0831,-0.0848,-0.0859,-0.0852,-0.0842,-0.0778,-0.0727,-0.062,-0.0524,-0.0269,-0.0046,0.0195,0.0298,0.034,0.0395,0.0356,0.0322,0.0294,0.0316,0.0307,0.0388,0.0387,0.0387,0.0387,0.0386,-0.0787,-0.081,-0.0837,-0.0868,-0.0893,-0.0906,-0.0902,-0.0874,-0.0833,-0.0728,-0.0631,-0.0463,-0.025,0.0101,0.0273,0.0427,0.0418,0.0462,0.0457,0.0453,0.0427,0.0403,0.0512,0.0512,0.0512,0.0513,0.0513,0,-0.0798,-0.0829,-0.0866,-0.0901,-0.0931,-0.0936,-0.0922,-0.0894,-0.0835,-0.0726,-0.0605,-0.0356,-0.0102,0.0106,0.0367,0.0519,0.0495,0.0532,0.0481,0.0475,0.0469,0.0441,0.0532,0.0533,0.0533,0.0533,0,0,-0.0804,-0.0843,-0.0867,-0.092,-0.0945,-0.0956,-0.0942,-0.0888,-0.0801,-0.0679,-0.0548,-0.0365,-0.0099,0.0092,0.0286,0.042,0.0398,0.0421,0.0391,0.0301,0.0293,0.0417,0.0367,0,0,0,0,0]}],[{"header":{"parameterUnit":"m.s-1","parameterCategory":2,"la1":30.2991,"la2":30.254,"lo1":-89.0895,"lo2":-89.0444,"dy":0.0017,"dx":0.0017,"nx":28,"ny":28,"refTime":"2023-09-08T21:00:00:Z","depth":"4","parameterNumber":2,"parameterNumberName":"U-component_of_CURRENTS"},"data":[0,0,0,0,0,0,0,0,0,0,0,0,0,0,0,0,0,0,0,0,0,0,0,0,0,0,0,0,0,0,0,0,0,0,0,0,0,0,0,0,0,0,0,0,0,0,0,0,0,0,0,0,0,0,0,0,0,0,-0.1298,-0.1298,0,-0.1308,-0.1308,-0.1308,-0.1325,-0.1325,-0.1326,-0.1326,-0.1361,-0.1361,-0.1361,0,0,0,0,0,0,0,0,0,0,0,0,0,-0.1276,-0.1277,-0.1298,-0.1298,-0.1298,-0.1308,-0.1308,-0.1308,-0.1325,-0.1325,-0.1326,-0.1327,-0.136,-0.1361,-0.1361,0,0,0,0,0,0,0,0,0,0,0,0,0,-0.1284,-0.1277,-0.1298,-0.1309,-0.131,-0.1308,-0.1308,-0.1308,-0.1325,-0.1325,-0.1326,-0.1327,-0.136,-0.1361,-0.1362,-0.1351,0,0,-0.1364,-0.1364,0,0,0,0,0,0,0,0,-0.1284,-0.1285,-0.1307,-0.1308,-0.131,-0.1317,-0.1313,-0.1324,-0.1325,-0.1318,-0.1326,-0.1327,-0.1349,-0.135,-0.1348,-0.1353,-0.1355,-0.1364,-0.1364,-0.1364,-0.1365,0,0,0,0,0,0,0,-0.1283,-0.1285,-0.13,-0.1307,-0.1309,-0.1308,-0.131,-0.1315,-0.1328,-0.1318,-0.132,-0.1323,-0.135,-0.1347,-0.1349,-0.1355,-0.1364,-0.1364,-0.1365,-0.1365,-0.144,-0.1441,0,0,0,0,0,0,-0.1286,-0.1284,-0.13,-0.13,-0.13,-0.1308,-0.131,-0.1313,-0.1328,-0.1331,-0.1323,-0.1324,-0.1346,-0.1348,-0.135,-0.1414,-0.1364,-0.1365,-0.1366,-0.1438,-0.144,-0.1442,0,0,0,0,0,0,-0.1285,-0.1287,-0.1299,-0.1294,-0.1296,-0.1308,-0.1311,-0.1313,-0.134,-0.1331,-0.1335,-0.1352,-0.1346,-0.1349,-0.1385,-0.1413,-0.1365,-0.1366,-0.1436,-0.1439,-0.1441,-0.1494,0,0,0,0,0,0,-0.1284,-0.1286,-0.1302,-0.1294,-0.1296,-0.1314,-0.131,-0.1312,-0.134,-0.1343,-0.1357,-0.1359,-0.1347,-0.1385,-0.1386,-0.1413,-0.1367,-0.1434,-0.1437,-0.144,-0.149,-0.1497,-0.1504,0,0,0,0,0,-0.1283,-0.1291,-0.1302,-0.1305,-0.1312,-0.1315,-0.1316,-0.1326,-0.1341,-0.1354,-0.1373,-0.136,-0.1404,-0.1386,-0.1388,-0.1415,-0.1433,-0.1436,-0.144,-0.1487,-0.1496,-0.1504,0,0,0,0,0,0,-0.1287,-0.1294,-0.1305,-0.1316,-0.1326,-0.1319,-0.133,-0.1345,-0.1368,-0.1379,-0.1378,-0.1382,-0.1422,-0.1415,-0.1396,-0.1447,-0.1417,-0.1421,-0.1452,-0.1461,-0.1468,-0.1463,-0.1367,0,0,0,0,0,-0.1296,-0.1308,-0.1313,-0.1326,-0.1331,-0.134,-0.1349,-0.1358,-0.1371,-0.1384,-0.1396,-0.1413,-0.1431,-0.1446,-0.1453,-0.1482,-0.1462,-0.1502,-0.1509,-0.1515,-0.1514,-0.1526,-0.1534,-0.1453,-0.1453,-0.1453,0,0,-0.1302,-0.1308,-0.1316,-0.1329,-0.1335,-0.1354,-0.1348,-0.1365,-0.1395,-0.1383,-0.1431,-0.1437,-0.1445,-0.1476,-0.1494,-0.1479,-0.1525,-0.152,-0.1525,-0.152,-0.153,-0.1538,-0.1545,-0.1455,-0.1455,-0.1455,0,0,-0.1322,-0.1324,-0.1348,-0.1359,-0.1378,-0.1376,-0.1392,-0.1404,-0.1425,-0.1466,-0.1468,-0.1493,-0.1525,-0.1528,-0.1537,-0.159,-0.1561,-0.1601,-0.1633,-0.1646,-0.1652,-0.1657,-0.1623,-0.1625,-0.1605,-0.1605,-0.1606,0,-0.1339,-0.1361,-0.1356,-0.1383,-0.1398,-0.1395,-0.1427,-0.144,-0.1469,-0.1491,-0.1493,-0.1545,-0.1547,-0.1587,-0.1603,-0.1604,-0.1594,-0.1599,-0.1654,-0.1659,-0.1663,-0.1627,-0.1628,-0.1608,-0.1608,-0.1608,-0.1608,0,-0.1374,-0.1402,-0.1411,-0.1445,-0.1459,-0.1477,-0.1493,-0.1518,-0.1542,-0.1557,-0.1608,-0.1611,-0.164,-0.1648,-0.1642,-0.1681,-0.1656,-0.1659,-0.1628,-0.1674,-0.1633,-0.1633,-0.1613,-0.1612,-0.1611,-0.161,0,0,-0.1386,-0.1433,-0.144,-0.146,-0.1494,-0.1495,-0.1549,-0.1582,-0.161,-0.1645,-0.1686,-0.1719,-0.1716,-0.1725,-0.1721,-0.1729,-0.174,-0.1712,-0.1711,-0.167,-0.174,-0.1624,-0.1613,-0.1762,-0.1763,-0.1763,-0.169,0,-0.1423,-0.1471,-0.1499,-0.1541,-0.1552,-0.1577,-0.1616,-0.1648,-0.1673,-0.1703,-0.1723,-0.175,-0.1748,-0.1757,-0.1774,-0.1746,-0.1748,-0.1758,-0.1708,-0.1706,-0.1592,-0.1612,-0.1766,-0.169,-0.169,-0.169,-0.169,0,-0.1442,-0.1471,-0.1524,-0.1565,-0.1577,-0.1611,-0.1651,-0.169,-0.1733,-0.1758,-0.1797,-0.1802,-0.182,-0.181,-0.1802,-0.1812,-0.1784,-0.1759,-0.1757,-0.163,-0.1591,-0.1641,-0.169,-0.169,-0.169,-0.169,-0.169,0,-0.1399,-0.1476,-0.1514,-0.153,-0.1586,-0.1626,-0.1658,-0.1707,-0.1729,-0.1784,-0.1794,-0.1835,-0.183,-0.1835,-0.1791,-0.1803,-0.1759,-0.1767,-0.1635,-0.1625,-0.1726,-0.1722,-0.1766,-0.1766,-0.1766,-0.1766,-0.1767,0,-0.1382,-0.141,-0.1498,-0.1506,-0.1547,-0.1604,-0.1645,-0.1686,-0.1739,-0.1744,-0.181,-0.1803,-0.184,-0.1819,-0.1797,-0.17,-0.1767,-0.163,-0.1604,-0.1747,-0.1746,-0.1725,-0.1721,-0.1764,-0.1764,-0.1765,-0.1765,0,-0.13,-0.1368,-0.1402,-0.1489,-0.1518,-0.1538,-0.1615,-0.1631,-0.17,-0.1709,-0.1724,-0.1769,-0.1738,-0.1747,-0.1719,-0.1669,-0.1612,-0.1565,-0.1684,-0.1668,-0.1464,-0.1464,-0.1404,-0.1399,-0.1395,-0.1392,-0.1389,0,-0.1254,-0.1269,-0.1364,-0.1386,-0.1429,-0.1479,-0.1505,-0.1591,-0.1603,-0.1661,-0.1643,-0.1651,-0.1663,-0.1524,-0.156,-0.1503,-0.1495,-0.145,-0.149,-0.1449,-0.1431,-0.1437,-0.1442,-0.1383,-0.1382,-0.1381,-0.138,0,-0.1162,-0.1213,-0.1244,-0.129,-0.133,-0.1362,-0.1409,-0.1405,-0.1486,-0.1558,-0.1515,-0.1495,-0.1451,-0.1433,-0.1394,-0.1364,-0.1475,-0.1409,-0.1418,-0.1455,-0.1423,-0.141,-0.142,-0.1367,-0.1369,-0.137,-0.1371,0,-0.1095,-0.1095,-0.115,-0.1177,-0.1226,-0.1231,-0.1271,-0.1281,-0.1305,-0.1383,-0.1356,-0.1379,-0.1424,-0.1356,-0.1323,-0.1282,-0.127,-0.1235,-0.1253,-0.1268,-0.126,-0.1202,-0.1046,0,0,0,0,0,-0.102,-0.1014,-0.1033,-0.1057,-0.1103,-0.1131,-0.1199,-0.1244,-0.1319,-0.125,-0.1304,-0.1264,-0.1217,-0.1233,-0.116,-0.1259,-0.1275,-0.1169,-0.1246,-0.1292,-0.1308,-0.1314,0,0,0,0,0,0,-0.0972,-0.0987,-0.0993,-0.0955,-0.0952,-0.0985,-0.1026,-0.1082,-0.1056,-0.1139,-0.112,-0.118,-0.1154,-0.1232,-0.1129,-0.1132,-0.1153,-0.1192,-0.1188,-0.1284,-0.1298,-0.131,-0.1321,0,0,0,0,0]},{"header":{"parameterUnit":"m.s-1","parameterCategory":2,"la1":30.2991,"la2":30.254,"lo1":-89.0895,"lo2":-89.0444,"dy":0.0017,"dx":0.0017,"nx":28,"ny":28,"refTime":"2023-09-08T21:00:00:Z","depth":"4","parameterNumber":3,"parameterNumberName":"V-component_of_CURRENTS"},"data":[0,0,0,0,0,0,0,0,0,0,0,0,0,0,0,0,0,0,0,0,0,0,0,0,0,0,0,0,0,0,0,0,0,0,0,0,0,0,0,0,0,0,0,0,0,0,0,0,0,0,0,0,0,0,0,0,0,0,-0.0192,-0.0191,0,-0.0151,-0.0151,-0.0151,-0.0128,-0.0128,-0.0128,-0.0128,-0.006,-0.0059,-0.0057,0,0,0,0,0,0,0,0,0,0,0,0,0,-0.0221,-0.0221,-0.0192,-0.0191,-0.019,-0.0151,-0.0151,-0.0151,-0.0128,-0.0128,-0.0128,-0.0128,-0.0061,-0.0059,-0.0057,0,0,0,0,0,0,0,0,0,0,0,0,0,-0.0199,-0.0221,-0.0192,-0.0174,-0.0172,-0.0151,-0.0151,-0.015,-0.0128,-0.0128,-0.0128,-0.0127,-0.0062,-0.0059,-0.0057,-0.0047,0,0,-0.0049,-0.0048,0,0,0,0,0,0,0,0,-0.02,-0.0198,-0.0177,-0.0175,-0.0172,-0.0143,-0.0137,-0.0114,-0.0128,-0.0146,-0.0128,-0.0127,-0.0085,-0.0081,-0.0076,-0.0044,-0.0041,-0.0049,-0.0048,-0.0047,-0.0046,0,0,0,0,0,0,0,-0.0202,-0.0199,-0.0177,-0.0176,-0.0174,-0.0158,-0.0155,-0.0132,-0.0118,-0.0144,-0.0142,-0.0136,-0.0084,-0.0078,-0.0074,-0.004,-0.0049,-0.0047,-0.0046,-0.0045,0.0029,0.003,0,0,0,0,0,0,-0.0206,-0.0201,-0.0178,-0.0176,-0.0184,-0.0158,-0.0154,-0.0154,-0.0119,-0.0113,-0.0136,-0.0135,-0.0083,-0.0077,-0.0072,-0.0041,-0.0047,-0.0045,-0.0043,0.0029,0.0029,0.003,0,0,0,0,0,0,-0.0207,-0.0205,-0.018,-0.0186,-0.0182,-0.0157,-0.0157,-0.0153,-0.0148,-0.0113,-0.0107,-0.0135,-0.0082,-0.0075,-0.0047,-0.0039,-0.0043,-0.0041,0.0028,0.0029,0.0029,0.0009,0,0,0,0,0,0,-0.0208,-0.0205,-0.0212,-0.0187,-0.0181,-0.0169,-0.0157,-0.0153,-0.0144,-0.0142,-0.0109,-0.0103,-0.0081,-0.0051,-0.0045,-0.0036,-0.0039,0.0027,0.0028,0.0029,0.0009,0.0009,0.0009,0,0,0,0,0,-0.0209,-0.0216,-0.0213,-0.021,-0.019,-0.0169,-0.0165,-0.0147,-0.0144,-0.0142,-0.0117,-0.0104,-0.004,-0.0049,-0.0041,-0.0032,0.0027,0.0028,0.0029,0.0009,0.0009,0.0009,0,0,0,0,0,0,-0.023,-0.0213,-0.021,-0.0211,-0.0193,-0.0165,-0.0163,-0.0151,-0.0131,-0.013,-0.0099,-0.009,-0.0064,-0.0044,-0.0054,-0.0007,-0.0004,-0.0001,-0.0022,-0.0022,-0.0022,-0.0029,-0.0037,0,0,0,0,0,-0.0239,-0.0244,-0.0218,-0.0222,-0.0213,-0.0191,-0.0182,-0.0169,-0.0145,-0.0137,-0.0113,-0.0083,-0.0054,-0.0036,-0.0011,0.0014,0.0034,0.0026,0.0026,0.0026,0.0026,0.0065,0.0068,0.0033,0.0033,0.0033,0,0,-0.0248,-0.024,-0.0243,-0.0227,-0.0214,-0.0201,-0.0185,-0.0173,-0.0161,-0.0132,-0.0112,-0.0086,-0.0048,-0.0019,-0.0005,-0.0001,0.0046,0.0027,0.0027,0.0027,0.0067,0.007,0.0073,0.0034,0.0034,0.0034,0,0,-0.0265,-0.0261,-0.0269,-0.0254,-0.0235,-0.0216,-0.0213,-0.0186,-0.0173,-0.015,-0.0123,-0.0088,-0.0053,-0.0016,0.0006,0.0022,0.0041,0.0026,0.0025,0.0063,0.0066,0.0069,0.0094,0.01,0.003,0.003,0.003,0,-0.0278,-0.0284,-0.0266,-0.0263,-0.0254,-0.0223,-0.0221,-0.0198,-0.0165,-0.0153,-0.0147,-0.008,-0.0047,0.0001,0.0009,0.0023,0.0038,0.002,0.0062,0.0065,0.0068,0.0094,0.01,0.0029,0.0029,0.003,0.003,0,-0.0295,-0.0298,-0.0298,-0.0287,-0.0273,-0.0266,-0.023,-0.0215,-0.0197,-0.0172,-0.0131,-0.0083,-0.0044,-0.0022,-0.0001,0.0042,0.0043,0.0052,0.0059,0.0071,0.0097,0.0104,0.0028,0.0028,0.0029,0.0029,0,0,-0.0328,-0.0316,-0.0318,-0.0318,-0.0287,-0.0278,-0.0254,-0.0224,-0.0213,-0.0169,-0.0149,-0.0082,-0.0061,-0.0033,0.0003,0.0046,0.0087,0.0055,0.0058,0.0075,0.0158,0.0146,0.0152,0.0097,0.0099,0.0099,0.0165,0,-0.0349,-0.0359,-0.0342,-0.0343,-0.0341,-0.0306,-0.0289,-0.0255,-0.0224,-0.0195,-0.013,-0.0099,-0.0062,-0.0047,0.0003,0.0061,0.0104,0.0068,0.0149,0.0152,0.0135,0.016,0.0103,0.017,0.0171,0.0173,0.0173,0,-0.0371,-0.0376,-0.0388,-0.0377,-0.0374,-0.0369,-0.0343,-0.0322,-0.0264,-0.0241,-0.0189,-0.0145,-0.0071,-0.0049,0.0066,0.0036,0.0094,0.0144,0.0148,0.0148,0.0153,0.0159,0.0186,0.0185,0.0184,0.0183,0.0183,0,-0.0406,-0.0406,-0.0423,-0.0418,-0.0398,-0.0401,-0.0389,-0.0343,-0.0327,-0.0273,-0.0255,-0.0169,-0.0126,-0.004,0.0066,0.0062,0.0186,0.0194,0.0242,0.0242,0.024,0.0237,0.0277,0.0277,0.0276,0.0276,0.0276,0,-0.0429,-0.0441,-0.0447,-0.0454,-0.0474,-0.0446,-0.0452,-0.0425,-0.0385,-0.0362,-0.0289,-0.0247,-0.0122,-0.0035,0.0055,0.0167,0.0179,0.0247,0.0262,0.023,0.0224,0.0245,0.0241,0.0279,0.0278,0.0278,0.0277,0,-0.0453,-0.0458,-0.0479,-0.0485,-0.0491,-0.0506,-0.05,-0.0495,-0.0457,-0.0424,-0.0409,-0.0302,-0.0188,-0.0063,0.0084,0.0151,0.0259,0.0296,0.0246,0.0256,0.0291,0.0284,0.0354,0.0354,0.0354,0.0354,0.0354,0,-0.046,-0.0477,-0.051,-0.0531,-0.0539,-0.0557,-0.0565,-0.0537,-0.0521,-0.045,-0.0428,-0.0322,-0.0238,-0.0038,0.0084,0.0249,0.0276,0.0322,0.0319,0.0293,0.0301,0.0294,0.0288,0.0355,0.0355,0.0355,0.0355,0,-0.0474,-0.0497,-0.0516,-0.0564,-0.0592,-0.0609,-0.0614,-0.0604,-0.0557,-0.053,-0.0429,-0.0318,-0.0188,-0.0034,0.0092,0.0212,0.0285,0.0325,0.0325,0.0323,0.0295,0.0301,0.0295,0.0355,0.0355,0.0355,0.0355,0,-0.0486,-0.0509,-0.0547,-0.0583,-0.0624,-0.064,-0.064,-0.0603,-0.0579,-0.0489,-0.0459,-0.0315,-0.0227,-0.0053,0.0063,0.0176,0.0207,0.0239,0.0245,0.0246,0.0193,0.0141,0.0173,0,0,0,0,0,-0.0489,-0.0517,-0.0558,-0.0598,-0.0641,-0.0659,-0.0658,-0.0643,-0.0599,-0.0531,-0.0487,-0.0363,-0.0172,-0.0087,0.0026,0.0056,0.0213,0.019,0.0249,0.0359,0.0358,0.0314,0,0,0,0,0,0,-0.0492,-0.0534,-0.0556,-0.0604,-0.0633,-0.0669,-0.0668,-0.0639,-0.0582,-0.0525,-0.0419,-0.0353,-0.0166,-0.0242,0.002,0.0055,0.0105,0.0282,0.0284,0.0359,0.0359,0.0358,0.0313,0,0,0,0,0]}]]